BEE213 EGJB-EGHH

Flight info

Callsign BEE213
Flight time N/A
Altitude 15000
Route ORTAC DCT THRED
Aircraft DH8D/M-SDE2E3FGRY/H

Departure

Time 2026-04-28 16:15
Airport Guernsey Airport (EGJB)

Arrival

Time N/A
Airport Bournemouth Airport (EGHH)
Time Latitude Longitude Altitude Speed Heading
2026-04-28 15:42 49.43299 -2.59401 339 ft 0 kts 176°
2026-04-28 16:05 49.43298 -2.59401 339 ft 0 kts 175°
2026-04-28 16:06 49.43308 -2.59402 339 ft 2 kts 176°
2026-04-28 16:06 49.43323 -2.59404 339 ft 2 kts 177°
2026-04-28 16:06 49.43338 -2.59401 339 ft 2 kts 198°
2026-04-28 16:06 49.43351 -2.59391 339 ft 2 kts 216°
2026-04-28 16:07 49.43361 -2.59375 339 ft 2 kts 234°
2026-04-28 16:07 49.43368 -2.59355 339 ft 2 kts 252°
2026-04-28 16:07 49.43370 -2.59332 339 ft 0 kts 269°
2026-04-28 16:10 49.43370 -2.59381 339 ft 4 kts 268°
2026-04-28 16:10 49.43367 -2.59450 339 ft 8 kts 265°
2026-04-28 16:10 49.43361 -2.59657 336 ft 9 kts 267°
2026-04-28 16:11 49.43346 -2.59808 333 ft 10 kts 264°
2026-04-28 16:11 49.43340 -2.60041 327 ft 12 kts 267°
2026-04-28 16:12 49.43332 -2.60393 314 ft 20 kts 267°
2026-04-28 16:12 49.43327 -2.60610 307 ft 21 kts 275°
2026-04-28 16:13 49.43362 -2.61010 302 ft 17 kts 267°
2026-04-28 16:13 49.43357 -2.61150 302 ft 8 kts 270°
2026-04-28 16:13 49.43418 -2.61345 299 ft 11 kts 329°
2026-04-28 16:14 49.43463 -2.61332 300 ft 1 kts 66°
2026-04-28 16:14 49.43486 -2.60662 306 ft 104 kts 87°
2026-04-28 16:15 49.43513 -2.57788 1200 ft 144 kts 78°
2026-04-28 16:15 49.43628 -2.56252 1915 ft 151 kts 81°
2026-04-28 16:15 49.43950 -2.54796 2646 ft 152 kts 53°
2026-04-28 16:16 49.45907 -2.52936 3770 ft 188 kts 27°
2026-04-28 16:16 49.47129 -2.52160 4443 ft 195 kts 26°
2026-04-28 16:17 49.49721 -2.50609 5834 ft 207 kts 25°
2026-04-28 16:17 49.51098 -2.49803 6388 ft 219 kts 25°
2026-04-28 16:17 49.52523 -2.48982 7103 ft 223 kts 25°
2026-04-28 16:17 49.53979 -2.48148 7800 ft 227 kts 24°
2026-04-28 16:18 49.55473 -2.47294 8507 ft 230 kts 24°
2026-04-28 16:18 49.56962 -2.46443 9196 ft 234 kts 24°
2026-04-28 16:18 49.58493 -2.45571 9910 ft 237 kts 24°
2026-04-28 16:18 49.60047 -2.44687 10574 ft 241 kts 24°
2026-04-28 16:19 49.61684 -2.43749 10736 ft 265 kts 24°
2026-04-28 16:19 49.63425 -2.42759 11142 ft 274 kts 23°
2026-04-28 16:19 49.65214 -2.41746 11699 ft 277 kts 23°
2026-04-28 16:19 49.67047 -2.40711 12221 ft 280 kts 23°
2026-04-28 16:20 49.68876 -2.39678 12733 ft 283 kts 23°
2026-04-28 16:20 49.70653 -2.38403 13212 ft 284 kts 36°
2026-04-28 16:20 49.72185 -2.36497 13759 ft 285 kts 42°
2026-04-28 16:20 49.73689 -2.34546 14338 ft 285 kts 43°
2026-04-28 16:21 49.75208 -2.32572 14825 ft 289 kts 42°
2026-04-28 16:21 49.76790 -2.30513 14984 ft 303 kts 42°
2026-04-28 16:21 49.78433 -2.28376 15012 ft 318 kts 42°
2026-04-28 16:21 49.80169 -2.26121 15013 ft 329 kts 42°
2026-04-28 16:22 49.81897 -2.23886 15011 ft 322 kts 42°
2026-04-28 16:22 49.83613 -2.21677 15012 ft 316 kts 43°
2026-04-28 16:22 49.85275 -2.19516 15008 ft 314 kts 42°
2026-04-28 16:22 49.86946 -2.17357 15019 ft 312 kts 43°
2026-04-28 16:23 49.88595 -2.15220 15016 ft 311 kts 43°
2026-04-28 16:23 49.90246 -2.13078 15015 ft 310 kts 43°
2026-04-28 16:23 49.91899 -2.10929 15010 ft 309 kts 43°
2026-04-28 16:23 49.93555 -2.08774 15011 ft 309 kts 43°
2026-04-28 16:24 49.95184 -2.06652 15023 ft 308 kts 43°
2026-04-28 16:24 49.96833 -2.04502 15024 ft 308 kts 43°
2026-04-28 16:24 49.98459 -2.02380 15022 ft 308 kts 43°
2026-04-28 16:24 50.00162 -2.00343 14999 ft 310 kts 35°
2026-04-28 16:25 50.02105 -1.98895 15026 ft 312 kts 27°
2026-04-28 16:25 50.04103 -1.97561 15024 ft 312 kts 27°
2026-04-28 16:25 50.06097 -1.96232 15017 ft 312 kts 26°
2026-04-28 16:25 50.08074 -1.94910 15017 ft 312 kts 27°
2026-04-28 16:26 50.10073 -1.93569 15021 ft 312 kts 27°
2026-04-28 16:26 50.12060 -1.92230 15025 ft 311 kts 27°
2026-04-28 16:26 50.14035 -1.90896 15020 ft 312 kts 27°
2026-04-28 16:26 50.16019 -1.89552 15026 ft 311 kts 27°
2026-04-28 16:27 50.17996 -1.88211 15024 ft 311 kts 27°
2026-04-28 16:27 50.19970 -1.86870 15027 ft 311 kts 27°
2026-04-28 16:27 50.23924 -1.84177 15032 ft 311 kts 27°
2026-04-28 16:28 50.25901 -1.82828 15030 ft 311 kts 27°
2026-04-28 16:28 50.27228 -1.81921 15028 ft 311 kts 27°
2026-04-28 16:28 50.29853 -1.80126 15030 ft 311 kts 27°
2026-04-28 16:28 50.31829 -1.78774 15033 ft 310 kts 27°
2026-04-28 16:29 50.35775 -1.76069 15024 ft 310 kts 27°